Location: Mountain Grove
(34.0887°N, 86.6172°W)
Time: 22:08:52
(UTC+00:00)

Cosmos 2237 Rocket - Pass Details

Date: 14 July 2020
Orbit: 834 x 850 km, 71.0° (Epoch: 08 August)

Event Time Altitude Azimuth Distance (km) Brightness Sun altitude
Rises 02:56:13 0° 217° (SW) 3,395 5.2 -20.3°
Reaches altitude 10° 02:58:46 10° 223° (SW) 2,465 4.6 -20.7°
Maximum altitude 03:04:09 44° 295° (WNW) 1,153 3.3 -21.4°
Drops below altitude 10° 03:09:35 10° 7° (N) 2,481 5.2 -22.2°
Sets 03:12:10 0° 14° (NNE) 3,419 5.9 -22.5°
